Date String (YYYY-MM-DD hh:mm:ss) UTC,Instrument flags,Ambient pressure (hPa),Sample flow (lpm),Bypass flow (lpm),Sample temperature (°C),Ambient temperature (°C),ASC tube jacket temperature (°C),LED temperature (°C),Box temperature (°C),Sample RH (%),Span deviation,Mass concentration (μg/m³),Mass concentration (μg/m³),Mass concentration (μg/m³)
DateTimeUTC,F1_M11,P_M11,Q1_M11,Q2_M11,T1_M11,T2_M11,T3_M11,T4_M11,T5_M11,U1_M11,ZSPAN_M11,X2_M11,X0_M11,X1_M11
2022-03-28 14:00:00,,0820.0,5.00,0.00,27.0,26.0,00.0,36.1,28.7,06.0,0003.7,0006.06,0013.98,0004.86
2022-03-28 14:01:00,,0819.9,5.01,0.00,27.0,26.0,00.0,36.1,28.7,05.6,0003.5,0005.72,0013.42,0004.52
2022-03-28 14:02:00,,0820.0,5.01,0.00,26.9,26.0,00.0,36.1,28.7,05.8,0002.3,0005.32,0012.72,0004.16
2022-03-28 14:03:00,,0820.0,5.00,0.00,26.9,26.0,00.0,36.0,28.6,09.1,0000.0,0005.01,0012.18,0003.91
2022-03-28 14:04:00,,0820.1,4.99,0.00,26.9,25.9,00.0,36.0,28.6,09.4,0000.0,0004.84,0011.07,0003.79
2022-03-28 14:05:00,,0820.2,4.99,0.00,26.9,25.9,00.0,36.0,28.6,09.8,0000.0,0004.79,0010.24,0003.76
2022-03-28 14:06:00,,0820.2,5.00,0.00,26.9,25.9,00.0,36.0,28.6,09.1,0000.0,0004.81,0010.18,0003.78
2022-03-28 14:07:00,,0820.1,5.00,0.00,26.8,25.9,00.0,36.0,28.6,08.1,0000.0,0004.88,0010.29,0003.84
2022-03-28 14:08:00,,0820.1,5.04,0.00,26.8,25.9,00.0,36.0,28.6,07.9,0000.0,0004.94,0010.27,0003.89
2022-03-28 14:10:00,,0820.2,5.00,0.00,26.8,25.9,00.0,35.9,28.6,07.5,0000.0,0004.69,0009.39,0003.76
2022-03-28 14:11:00,,0820.2,5.00,0.00,26.8,25.9,00.0,35.9,28.6,08.3,0000.0,0004.76,0009.83,0003.84
2022-03-28 14:12:00,,0820.2,5.00,0.00,26.9,26.0,00.0,35.9,28.6,09.7,0000.6,0005.06,0010.85,0004.11
2022-03-28 14:13:00,,0820.3,5.01,0.00,26.9,26.0,00.0,35.9,28.6,07.6,0000.9,0005.33,0011.41,0004.32
2022-03-28 14:14:00,,0820.2,5.01,0.00,26.9,26.0,00.0,35.9,28.6,06.4,0001.2,0005.17,0012.13,0004.19
2022-03-28 14:15:00,,0820.2,4.99,0.00,26.8,26.0,00.0,35.9,28.6,06.5,0001.6,0004.88,0012.51,0003.93
2022-03-28 14:16:00,,0820.3,5.00,0.00,26.8,26.0,00.0,35.9,28.6,06.3,0001.9,0004.58,0012.05,0003.67
2022-03-28 14:17:00,,0820.2,5.01,0.00,26.8,25.9,00.0,35.9,28.6,06.2,0000.6,0004.35,0012.77,0003.44
2022-03-28 14:18:00,,0820.2,5.00,0.00,26.8,25.9,00.0,35.9,28.5,06.1,0000.0,0004.20,0013.96,0003.29
2022-03-28 14:19:00,,0820.3,5.01,0.00,26.8,25.9,00.0,35.9,28.5,06.2,0000.0,0004.07,0013.73,0003.19
2022-03-28 14:20:00,,0820.3,4.99,0.00,26.8,25.9,00.0,35.8,28.5,06.4,0000.0,0004.11,0013.88,0003.20
2022-03-28 14:21:00,,0820.2,5.00,0.00,26.7,25.9,00.0,35.8,28.4,05.9,0000.0,0004.13,0013.98,0003.19
2022-03-28 14:22:00,,0820.2,4.99,0.00,26.7,25.9,00.0,35.8,28.5,05.8,0000.0,0004.02,0014.51,0003.01
2022-03-28 14:23:00,,0820.2,5.00,0.00,26.7,25.9,00.0,35.8,28.5,06.1,0000.0,0003.74,0014.17,0002.52
2022-03-28 14:24:00,,0820.2,5.00,0.00,26.7,25.9,00.0,35.8,28.4,06.4,0000.0,0003.55,0013.98,0002.20
2022-03-28 14:25:00,,0820.2,4.99,0.00,26.7,25.8,00.0,35.8,28.4,06.1,0000.0,0003.53,0013.71,0002.15
2022-03-28 14:26:00,,0820.2,4.99,0.00,26.7,25.8,00.0,35.8,28.4,05.9,0000.0,0003.45,0013.02,0002.06
2022-03-28 14:27:00,,0820.2,5.00,0.00,26.7,25.8,00.0,35.8,28.4,06.2,0000.0,0003.43,0013.18,0002.01
2022-03-28 14:28:00,,0820.2,5.01,0.00,26.7,25.8,00.0,35.8,28.4,05.7,0000.0,0003.34,0012.51,0001.94
2022-03-28 14:29:00,,0820.2,5.01,0.00,26.7,25.8,00.0,35.8,28.4,05.7,0000.0,0003.27,0010.71,0001.86
2022-03-28 14:30:00,,0820.2,5.01,0.00,26.7,25.8,00.0,35.7,28.4,05.7,0000.0,0003.26,0010.79,0001.79
2022-03-28 14:31:00,,0820.2,5.00,0.00,26.7,25.8,00.0,35.7,28.5,05.8,0000.0,0003.21,0010.99,0001.69
2022-03-28 14:32:00,,0820.2,5.00,0.00,26.7,25.9,00.0,35.7,28.5,06.0,0000.0,0003.20,0011.01,0001.64
2022-03-28 14:33:00,,0820.2,5.00,0.00,26.7,25.9,00.0,35.7,28.5,06.3,0000.0,0003.18,0009.97,0001.65
2022-03-28 14:34:00,,0820.2,4.98,0.00,26.7,25.9,00.0,35.7,28.5,05.7,0000.0,0003.11,0009.90,0001.61
2022-03-28 14:35:00,,0820.1,5.01,0.00,26.7,25.9,00.0,35.7,28.5,05.6,0000.0,0002.97,0009.52,0001.53
2022-03-28 14:36:00,,0820.1,5.00,0.00,26.7,25.9,00.0,35.7,28.5,05.6,0000.0,0002.89,0008.58,0001.46
2022-03-28 14:37:00,,0820.1,5.01,0.00,26.7,26.0,00.0,35.7,28.5,05.6,0000.0,0002.90,0008.51,0001.44
2022-03-28 14:38:00,,0820.1,5.00,0.00,26.8,26.0,00.0,35.7,28.5,05.6,0000.0,0002.84,0008.12,0001.40
2022-03-28 14:39:00,,0820.1,5.01,0.00,26.8,26.0,00.0,35.7,28.5,05.7,0000.0,0002.90,0008.06,0001.39
2022-03-28 14:40:00,,0820.1,5.00,0.00,26.8,26.0,00.0,35.7,28.5,06.5,0000.0,0002.87,0008.36,0001.41
2022-03-28 14:41:00,,0820.2,5.00,0.00,26.8,26.0,00.0,35.7,28.6,06.4,0000.0,0002.90,0008.85,0001.45
2022-03-28 14:42:00,,0820.2,4.99,0.00,26.8,26.0,00.0,35.8,28.6,05.9,0000.0,0002.94,0008.75,0001.48
2022-03-28 14:43:00,,0820.1,5.00,0.00,26.8,26.0,00.0,35.8,28.6,05.6,0000.0,0002.84,0008.60,0001.46
2022-03-28 14:44:00,,0820.1,5.00,0.00,26.8,26.0,00.0,35.8,28.6,05.5,0000.0,0002.69,0008.34,0001.40
2022-03-28 14:45:00,,0820.2,5.01,0.00,26.8,25.9,00.0,35.8,28.6,05.6,0000.0,0002.67,0008.02,0001.39
2022-03-28 14:46:00,,0820.2,5.00,0.00,26.8,25.9,00.0,35.8,28.5,05.5,0000.0,0002.62,0008.22,0001.38
2022-03-28 14:47:00,,0820.2,5.01,0.00,26.8,26.0,00.0,35.8,28.6,05.6,0000.0,0002.63,0008.71,0001.38
2022-03-28 14:48:00,,0820.1,5.00,0.00,26.8,26.0,00.0,35.8,28.6,05.6,0000.0,0002.58,0008.88,0001.37
2022-03-28 14:49:00,,0820.2,5.00,0.00,26.8,26.0,00.0,35.8,28.6,06.1,0000.0,0002.58,0008.86,0001.36
2022-03-28 14:50:00,,0820.2,5.00,0.00,26.9,26.0,00.0,35.8,28.6,06.6,0000.0,0002.56,0008.85,0001.37
2022-03-28 14:51:00,,0820.1,5.00,0.00,26.9,26.1,00.0,35.8,28.7,08.9,0000.0,0002.74,0009.09,0001.47
2022-03-28 14:52:00,,0820.1,5.00,0.00,26.9,26.1,00.0,35.8,28.6,09.0,0000.0,0002.97,0008.79,0001.65
2022-03-28 14:53:00,,0820.2,5.00,0.00,26.9,26.1,00.0,35.8,28.7,07.1,0000.0,0003.00,0008.73,0001.68
2022-03-28 14:54:00,,0820.2,5.00,0.00,26.9,26.1,00.0,35.8,28.7,06.8,0000.0,0003.07,0008.91,0001.71
2022-03-28 14:55:00,,0820.2,4.99,0.00,26.9,26.1,00.0,35.8,28.6,07.0,0000.0,0003.18,0009.14,0001.78
2022-03-28 14:56:00,,0820.2,5.00,0.00,26.9,26.0,00.0,35.8,28.6,06.1,0000.0,0003.23,0008.99,0001.82
2022-03-28 14:57:00,,0820.1,5.02,0.00,26.8,26.0,00.0,35.8,28.6,06.0,0000.0,0003.28,0009.19,0001.84
2022-03-28 14:58:00,,0820.2,4.99,0.00,26.8,26.0,00.0,35.8,28.6,05.9,0000.0,0003.28,0008.88,0001.86
2022-03-28 14:59:00,,0820.2,4.99,0.00,26.8,25.9,00.0,35.8,28.6,05.8,0000.0,0003.33,0008.50,0001.88
